Location: Bennemühlen
(52.5740°N, 9.7135°E)
Time: 07:21:10
(UTC+00:00)

A-11 Canister half - Pass Details

Date: 19 February 2026
Orbit: 1512 x 1687 km, 47.2° (Epoch: 8 March)

Event Time Altitude Azimuth Distance (km) Brightness Sun altitude
Rises 18:03:01 0° 185° (S) 4,928 11.7 -13.0°
Reaches altitude 10° 18:07:27 10° 169° (S) 3,944 11.0 -13.7°
Maximum altitude 18:13:48 19° 129° (SE) 3,273 10.3 -14.7°
Enters shadow 18:16:35 17° 110° (ESE) 3,407 10.2 -15.1°
Drops below altitude 10° 18:20:05 10° 90° (E) 3,917 - -15.6°
Sets 18:24:25 0° 74° (ENE) 4,884 - -16.3°
